Terug naar catalogus

COSMOS 2535

ActiefNavigatieSSO
NORAD 44421·PAYLOAD·🇷🇺 Russia

Gelanceerd Jul 10, 2019 vanaf Plesetsk Cosmodrome

Loading…

Volgende Passages (komende 24 uur)

TLE

VersSource: Space-Track

Epoch: Sep 14, 2026, 14:33 UTC

1 44421U 19039A   26257.60683987  .00000612  00000-0  65528-4 0  9995
2 44421  97.5729 282.3377 0006664 276.1734  83.8726 14.92084231389974

Volg COSMOS 2535 in realtime met AllMySat

Download on the App Store